Regional Weather Roundup
Issued by NWS Nashville, TN

Current Version | Previous Version | Text Only | Print | Product List | Glossary Off
Versions: 1 2 3 4 5 6 7 8 9 10 11 12 13 14 15 16 17 18 19 20 21 22 23 24 25 26 27

000
ASUS44 KOHX 261610
RWROHX
MIDDLE TENNESSEE HOURLY WEATHER ROUNDUP
NATIONAL WEATHER SERVICE NASHVILLE TN
1100 AM CDT MON JUN 26 2017

NOTE: "FAIR" INDICATES FEW OR NO CLOUDS BELOW 12,000 FEET WITH
NO SIGNIFICANT WEATHER AND/OR OBSTRUCTIONS TO VISIBILITY.

* THESE REPORTS ARE NOT UNDER NWS QUALITY CONTROL AND MAY NOT
  REPORT WEATHER SUCH AS PRECIPITATION AND FOG.


TNZ005>011-023>034-057-059-062>066-078-080-261700
...NORTHERN MIDDLE TENNESSEE...

CITY           SKY/WX    TMP DP  RH WIND       PRES   REMARKS
CLARKSVILLE    MOSUNNY   75  49  39 VRB5      30.21F
CROSSVILLE     PTSUNNY   69  54  58 VRB7      30.23F
GALLATIN       MOSUNNY   73  54  49 CALM      30.23S
NASHVILLE      CLOUDY    76  53  44 NE6       30.22S
PORTLAND       MOSUNNY   73  50  43 VRB3      30.20S
SMYRNA         PTSUNNY   73  56  54 N3        30.22F
SPARTA         SUNNY     72  61  68 CALM      30.21R
SPRINGFIELD    MOSUNNY   75  52  43 VRB5      30.20F
WEST NASHVILLE SUNNY     73  55  53 CALM      30.19F
$$
TNZ056-058-060-061-075>077-079-093>097-261700
...SOUTHERN MIDDLE TENNESSEE...

CITY           SKY/WX    TMP DP  RH WIND       PRES   REMARKS
COLUMBIA       SUNNY     68  61  77 CALM      30.20S
FAYETTEVILLE   SUNNY     79  55  44 VRB6      30.21S
MCMINNVILLE    SUNNY     75  59  57 VRB6      30.21S
MURFREESBORO   PTSUNNY   70  56  61 NE5       30.21S
PULASKI        SUNNY     79  61  53 NW6       30.20S
SHELBYVILLE    SUNNY     72  59  64 N6        30.21S
TULLAHOMA      SUNNY     75  55  50 NW7       30.23R
WINCHESTER     SUNNY     77  57  50 W5        30.22R
$$


...KEY TO REMARKS...
VSB - VISIBILITY IN MILES
WCI - WIND CHILL INDEX
HX  - HEAT INDEX





USA.gov is the U.S. government's official web portal to all federal, state and local government web resources and services.